• In Kazakhstan
  • List of Countries
  • For 7 days
  • Water Temperature
  • Satellite Maps
  • Weather Map
  • News
  • Weather Widgets
  • user-avatar
    Login

    Hourly Weather Worcester

    Today, 24 November, Friday

    Time Temperature Precipitation Wind Pressure Humidity
    00:00 -2°C° 0 mm 2 mps 745 mmHg 62%
    01:00 -2°C° 0 mm 2 mps 745 mmHg 64%
    02:00 -2°C° 0 mm 2 mps 746 mmHg 64%
    03:00 -2°C° 0 mm 2 mps 746 mmHg 65%
    04:00 -2°C° 0 mm 2 mps 746 mmHg 65%
    05:00 -2°C° 0 mm 2 mps 746 mmHg 65%
    06:00 -2°C° 0 mm 2 mps 746 mmHg 65%
    07:00 -2°C° 0 mm 2 mps 746 mmHg 66%
    08:00 +1°C° 0 mm 2 mps 746 mmHg 60%
    09:00 +3°C° 0 mm 2 mps 746 mmHg 54%
    10:00 +5°C° 0 mm 2 mps 746 mmHg 49%
    11:00 +6°C° 0 mm 2 mps 746 mmHg 48%
    12:00 +8°C° 0 mm 3 mps 745 mmHg 47%
    13:00 +9°C° 0 mm 3 mps 745 mmHg 46%
    14:00 +8°C° 0 mm 3 mps 744 mmHg 51%
    15:00 +7°C° 0 mm 3 mps 744 mmHg 57%
    16:00 +5°C° 0 mm 2 mps 744 mmHg 62%
    17:00 +4°C° 0 mm 3 mps 744 mmHg 64%
    18:00 +3°C° 0 mm 3 mps 744 mmHg 67%
    19:00 +2°C° 0 mm 3 mps 744 mmHg 69%
    20:00 +2°C° 0 mm 3 mps 744 mmHg 69%
    21:00 +2°C° 0 mm 3 mps 744 mmHg 70%
    22:00 +2°C° 0 mm 3 mps 744 mmHg 70%
    23:00 +2°C° 0 mm 3 mps 744 mmHg 70%

    Tomorrow, 25 November, Saturday

    Time Temperature Precipitation Wind Pressure Humidity
    00:00 +2°C° 0 mm 3 mps 743 mmHg 71%
    01:00 +2°C° 0 mm 3 mps 743 mmHg 71%
    02:00 +2°C° 0 mm 3 mps 743 mmHg 72%
    03:00 +2°C° 0 mm 3 mps 742 mmHg 73%
    04:00 +2°C° 0 mm 3 mps 742 mmHg 74%
    05:00 +2°C° 0 mm 3 mps 741 mmHg 75%
    06:00 +2°C° 0 mm 3 mps 741 mmHg 75%
    07:00 +2°C° 0 mm 3 mps 741 mmHg 76%
    08:00 +4°C° 0 mm 4 mps 741 mmHg 69%
    09:00 +6°C° 0 mm 4 mps 740 mmHg 62%
    10:00 +8°C° 0 mm 5 mps 740 mmHg 56%
    11:00 +9°C° 0 mm 5 mps 740 mmHg 54%
    12:00 +10°C° 0 mm 5 mps 739 mmHg 53%
    13:00 +12°C° 0 mm 5 mps 738 mmHg 51%
    14:00 +11°C° 0 mm 4 mps 738 mmHg 57%
    15:00 +10°C° 0 mm 3 mps 738 mmHg 62%
    16:00 +8°C° 0 mm 2 mps 738 mmHg 68%
    17:00 +8°C° 0 mm 2 mps 738 mmHg 72%
    18:00 +7°C° 0 mm 2 mps 738 mmHg 76%
    19:00 +6°C° 0 mm 2 mps 738 mmHg 80%
    20:00 +6°C° 0 mm 2 mps 738 mmHg 80%
    21:00 +6°C° 0 mm 2 mps 738 mmHg 81%
    22:00 +6°C° 0 mm 2 mps 738 mmHg 81%
    23:00 +6°C° 0 mm 2 mps 738 mmHg 83%

    Day after tomorrow, 26 November, Sunday

    Time Temperature Precipitation Wind Pressure Humidity
    00:00 +6°C° 0 mm 2 mps 738 mmHg 84%
    01:00 +5°C° 0 mm 2 mps 738 mmHg 85%
    02:00 +5°C° 0 mm 2 mps 738 mmHg 85%
    03:00 +4°C° 0 mm 3 mps 738 mmHg 85%
    04:00 +4°C° 0 mm 3 mps 738 mmHg 85%
    05:00 +4°C° 0 mm 3 mps 738 mmHg 81%
    06:00 +3°C° 0 mm 4 mps 738 mmHg 78%
    07:00 +3°C° 0 mm 4 mps 738 mmHg 74%
    08:00 +4°C° 0 mm 4 mps 738 mmHg 69%
    09:00 +3°C° 0 mm 5 mps 739 mmHg 64%
    10:00 +5°C° 0 mm 5 mps 739 mmHg 58%
    11:00 +5°C° 0 mm 5 mps 739 mmHg 57%
    12:00 +5°C° 0 mm 5 mps 739 mmHg 55%
    13:00 +4°C° 0 mm 6 mps 739 mmHg 53%
    14:00 +3°C° 0 mm 5 mps 740 mmHg 54%
    15:00 +3°C° 0 mm 5 mps 740 mmHg 56%
    16:00 +3°C° 0 mm 4 mps 741 mmHg 57%
    17:00 +1°C° 0 mm 4 mps 741 mmHg 58%
    18:00 0°C° 0 mm 4 mps 741 mmHg 60%
    19:00 -1°C° 0 mm 4 mps 742 mmHg 61%
    20:00 -1°C° 0 mm 4 mps 742 mmHg 62%
    21:00 0°C° 0 mm 3 mps 742 mmHg 64%
    22:00 0°C° 0 mm 3 mps 742 mmHg 65%
    23:00 -1°C° 0 mm 3 mps 742 mmHg 67%

    27 November, Monday

    Time Temperature Precipitation Wind Pressure Humidity
    00:00 -1°C° 0 mm 3 mps 742 mmHg 70%
    01:00 -1°C° 0 mm 3 mps 742 mmHg 72%
    02:00 -1°C° 0 mm 3 mps 742 mmHg 72%
    03:00 -1°C° 0 mm 3 mps 742 mmHg 73%
    04:00 -1°C° 0 mm 3 mps 742 mmHg 73%
    05:00 0°C° 0 mm 3 mps 743 mmHg 74%
    06:00 0°C° 0 mm 3 mps 743 mmHg 74%
    07:00 0°C° 0 mm 3 mps 743 mmHg 75%
    08:00 +1°C° 0 mm 4 mps 744 mmHg 69%
    09:00 +3°C° 0 mm 4 mps 744 mmHg 62%
    10:00 +3°C° 0 mm 5 mps 744 mmHg 56%
    11:00 +5°C° 0 mm 5 mps 744 mmHg 52%
    12:00 +5°C° 0 mm 5 mps 744 mmHg 47%
    13:00 +5°C° 0 mm 6 mps 744 mmHg 43%
    14:00 +5°C° 0 mm 5 mps 745 mmHg 45%
    15:00 +4°C° 0 mm 4 mps 745 mmHg 47%
    16:00 +2°C° 0 mm 3 mps 746 mmHg 48%
    17:00 +2°C° 0 mm 2 mps 747 mmHg 52%
    18:00 +1°C° 0 mm 2 mps 747 mmHg 57%
    19:00 -1°C° 0 mm 2 mps 748 mmHg 61%
    20:00 +1°C° 0 mm 1 mps 749 mmHg 64%
    21:00 +1°C° 0 mm 1 mps 749 mmHg 66%
    22:00 0°C° 0 mm 1 mps 749 mmHg 69%
    23:00 0°C° 0 mm 1 mps 749 mmHg 70%

    28 November, Tuesday

    Time Temperature Precipitation Wind Pressure Humidity
    00:00 0°C° 0 mm 1 mps 749 mmHg 71%
    01:00 0°C° 0 mm 1 mps 749 mmHg 72%
    02:00 -1°C° 0 mm 2 mps 749 mmHg 71%
    03:00 -1°C° 0 mm 2 mps 749 mmHg 71%
    04:00 +1°C° 0 mm 2 mps 749 mmHg 70%
    05:00 +1°C° 0 mm 3 mps 749 mmHg 74%
    06:00 +1°C° 0 mm 3 mps 749 mmHg 79%
    07:00 +2°C° 0 mm 3 mps 748 mmHg 83%
    08:00 +5°C° 0 mm 4 mps 748 mmHg 73%
    09:00 +7°C° 0 mm 5 mps 748 mmHg 64%
    10:00 +9°C° 0 mm 6 mps 748 mmHg 54%
    11:00 +10°C° 0 mm 6 mps 747 mmHg 51%
    12:00 +11°C° 0 mm 6 mps 746 mmHg 49%
    13:00 +13°C° 0 mm 6 mps 746 mmHg 46%
    14:00 +11°C° 0 mm 6 mps 746 mmHg 48%
    15:00 +10°C° 0 mm 5 mps 745 mmHg 51%
    16:00 +9°C° 0 mm 5 mps 745 mmHg 53%
    17:00 +9°C° 0 mm 5 mps 746 mmHg 56%
    18:00 +8°C° 0 mm 5 mps 746 mmHg 59%
    19:00 +8°C° 0 mm 5 mps 746 mmHg 61%
    20:00 +8°C° 0 mm 4 mps 746 mmHg 63%
    21:00 +7°C° 0 mm 4 mps 746 mmHg 64%
    22:00 +7°C° 0 mm 4 mps 746 mmHg 66%
    23:00 +7°C° 0 mm 4 mps 746 mmHg 67%

    29 November, Wednesday

    Time Temperature Precipitation Wind Pressure Humidity
    00:00 +7°C° 0 mm 3 mps 746 mmHg 69%
    01:00 +7°C° 0 mm 3 mps 746 mmHg 71%
    02:00 +7°C° 0 mm 3 mps 746 mmHg 73%
    03:00 +5°C° 0 mm 3 mps 746 mmHg 75%
    04:00 +6°C° 0 mm 2 mps 746 mmHg 77%
    05:00 +6°C° 0 mm 2 mps 746 mmHg 79%
    06:00 +5°C° 0 mm 2 mps 746 mmHg 80%
    07:00 +5°C° 0 mm 2 mps 747 mmHg 82%
    08:00 +7°C° 0 mm 2 mps 747 mmHg 76%
    09:00 +9°C° 0 mm 3 mps 747 mmHg 69%
    10:00 +11°C° 0 mm 3 mps 747 mmHg 63%
    11:00 +11°C° 0 mm 3 mps 748 mmHg 63%
    12:00 +11°C° 0 mm 3 mps 748 mmHg 62%
    13:00 +12°C° 0 mm 3 mps 748 mmHg 62%
    14:00 +11°C° 0 mm 3 mps 748 mmHg 65%
    15:00 +9°C° 0 mm 3 mps 749 mmHg 68%
    16:00 +8°C° 0 mm 2 mps 750 mmHg 72%
    17:00 +7°C° 0 mm 2 mps 750 mmHg 75%
    18:00 +5°C° 0 mm 2 mps 751 mmHg 78%
    19:00 +4°C° 0 mm 2 mps 752 mmHg 81%
    20:00 +3°C° 0 mm 2 mps 752 mmHg 80%
    21:00 +2°C° 0 mm 2 mps 753 mmHg 78%
    22:00 +1°C° 0 mm 2 mps 753 mmHg 77%
    23:00 +2°C° 0 mm 1 mps 753 mmHg 75%
    Show more